Regional Weather Roundup
Issued by NWS Lake Charles, LA

Home | Current Version | Previous Version | Text Only | Print | Product List | Glossary On
Versions: 1 2 3 4 5 6 7 8 9 10 11 12 13 14 15 16 17 18 19 20 21 22 23 24 25 26 27
000
ASUS44 KLCH 220610
RWRLCH
REGIONAL WEATHER ROUNDUP
NATIONAL WEATHER SERVICE LAKE CHARLES LA
1200 AM CST WED FEB 22 2017

Note: "fair" indicates few or no clouds below 12,000 feet with no
significant weather and/or obstructions to visibility.


ACROSS SOUTHEAST TEXAS

CITY           SKY/WX    TMP DP  RH WIND       PRES   REMARKS
BEAUMONT       CLEAR     59  52  77 NW7       29.89S
BEAUMONT CITY  FAIR      59  54  83 NW6       29.91S
ORANGE         CLEAR     60  55  82 NW3       29.90F
JASPER         PTCLDY    55  55  99 CALM      29.91F
$$

ACROSS CENTRAL LOUISIANA

CITY           SKY/WX    TMP DP  RH WIND       PRES   REMARKS
LEESVILLE      CLOUDY    61  57  89 NW5       29.87S
FULLERTON      CLOUDY    63  56  78 CALM      29.84F
ALEXANDRIA INT CLOUDY    61  58  90 W6        29.85F
ESLER FIELD    CLOUDY    59  59 100 W3        29.86F
DERIDDER       CLOUDY    60  58  96 CALM      29.89S
OAKDALE        CLOUDY    60  58  92 CALM      29.88R
OPELOUSAS      CLOUDY    56  55  97 MISG      29.86F
$$

ACROSS SOUTHWEST AND SOUTH CENTRAL LOUISIANA

CITY           SKY/WX    TMP DP  RH WIND       PRES   REMARKS
SULPHUR        CLOUDY    60  59  97 CALM      29.89F
LAKE CHARLES     N/A     60  58  92 MISG      29.87F
CHENNAULT INT  CLOUDY    61  58  88 CALM      29.88F
CAMERON PHI    CLEAR     64  63  94 W7        29.88S
DEQUINCY       FAIR      55  54  96 CALM      29.88F
JENNINGS       CLOUDY    61  58  91 CALM      29.87F
LAFAYETTE      MOCLDY    63  57  81 CALM      29.86F
NEW IBERIA     CLOUDY    58  54  86 CALM      29.87F
ABBEVILLE      CLOUDY    61  59  94 SW5       29.87F
PATTERSON      CLEAR     54  54 100 SW5       29.87S FOG
SALT POINT       N/A     61  50  67 W5        29.86S
$$

SELECTED SITES ACROSS THE REGION

CITY           SKY/WX    TMP DP  RH WIND       PRES   REMARKS
HOUSTON BUSH   CLEAR     59  49  69 W7        29.92F
HOUSTON HOBBY  CLEAR     59  50  72 W7        29.92F
GALVESTON      CLEAR     66  55  67 NW7       29.92F
COLLEGE STAT   CLEAR     56  48  74 CALM      29.94F
CONROE         CLEAR     49  48  97 CALM      29.93F
HUNTSVILLE     CLEAR     56  49  77 CALM      29.93F
LUFKIN         CLEAR     53  51  93 CALM      29.91S
SHREVEPORT     CLOUDY    63  57  81 NW5       29.87F
MONROE         CLOUDY    60  58  92 CALM      29.87F FOG
NATCHEZ MS     CLOUDY    57  54  88 CALM      29.86F
BATON ROUGE    CLOUDY    60  53  77 CALM      29.85F
N.O. INTL ARPT CLEAR     57  55  93 W3        29.85F
SLIDELL        CLEAR     54  53  97 CALM      29.84F
$$

MARINE REPORTS

STATION/POSITION TIME  SKY/WX   TEMP    WIND        PRES    VSBY
                                AIR SEA DIR/SP/G
                 (UTC)          (F)     (DEG/KT/KT) (MB)    (MI)
BUOY 30 S HIGH I 0550            66 65  290/  8/ 10 1012.8S
WVE H/P(F/S)=  2/ 6

SEA RIM ST PARK  0600            59     290/  6/  7 1012.8F
PORT ARTHUR      0548               65  340/  8/ 11 1012.2F
SABINE PASS N    0542            62 68  300/  4/  7 1013.4F
TEXAS POINT      NOT AVBL
CALCASIEU PASS   0548            65 65  250/  7/  8   N/A
LK CHARLES BEACH 0548            62 67              1012.0F
MARSH ISLAND     0500            63                   N/A
FRESH WATER LOCK 0548            62 66  230/  5/  7 1012.2F
AMERADA PASS     0548            59 59  220/  2/  5 1011.2F
$$




USA.gov is the U.S. government's official web portal to all federal, state and local government web resources and services.